www.pogodaiklimat.ru

Погода и климат >> Архив погоды >> Франция >> Нант


АРХИВ ПОГОДЫ в Нанте

Время (UTC), дата Ветер
(напр.,м/с)
 
Видим.   Явления Облачность Т
(С)
Тd
(С)
f
(%)
Тe
(С)
Тes
(С)
Комфортность P
(гПа)
Po
(гПа)
Тmin
(С)
Tmax
(С)
R
(мм)
R24
(мм)
S
(см)
16 18.06 ЮЗ 3 45 км 9/9
[]
+28.4 +15.0 44 +31 +32 душно 1007.1 1004.2
17 18.06 ЮЗ 2 35 км н/о +28.3 +15.2 45 +31 +31 душно 1007.1 1004.2
18 18.06 ЮЗ 5
{7}
35 км н/о +26.0 +17.1 58 +30 +30 душно 1007.5 1004.5 +18.1 +29.8 0
19 18.06 ЮЗ 2 40 км н/о +22.8 +15.4 63 +27 +27 душно 1007.9 1004.9
20 18.06 З 2 27 км н/о +19.6 +14.8 74 +22 +22 комфорт 1007.7 1004.7
21 18.06 ЮЗ 1
{4}
15 км н/о +17.2 +14.7 85 +18 +18 по сезону 1007.9 1004.8 0
22 18.06 З 3 6000 м 10/9 180 м
[]
+16.7 +15.6 93 +17 +17 тепло 1008.5 1005.4
23 18.06 Ю 1 5000 м 10/10 150 м
[]
+16.5 +15.5 94 +17 +17 тепло 1009.1 1006.0
00 19.06 ЮЗ 2
{7}
4100 м дымка 10/10 50 м
[]
+16.3 +15.5 95 +17 +17 тепло 1008.1 1005.0 0
01 19.06 З 2 6000 м 10/10 120 м
[]
+16.6 +16.0 96 +17 +17 тепло 1008.5 1005.4
02 19.06 ЮЗ 1 5000 м 10/9 150 м
[]
+17.1 +16.5 96 +19 +19 тепло 1008.8 1005.7
03 19.06 Ю 2
{4}
11 км 10/10 200 м
[]
+17.2 +16.6 96 +17 +17 тепло 1008.6 1005.5 0
04 19.06 Ю 2 13 км 10/8 210 м
[]
+17.0 +16.2 95 +17 +17 тепло 1008.8 1005.7
05 19.06 ЮЗ 3 17 км 10/1 360 м
[]
+17.2 +15.7 91 +17 +17 тепло 1009.0 1005.9
06 19.06 ЮЗ 6
{10}
19 км 9/9 300 м
[]
+17.2 +15.4 89 +16 +16 тепло 1009.2 1006.1 +16.3 +25.8 0
07 19.06 ЮЗ 4 16 км 8/6 450 м
[]
+18.3 +14.4 78 +19 +20 по сезону 1009.9 1006.8
08 19.06 ЮЗ 4 12 км 10/10 540 м
[]
+19.0 +15.1 78 +20 +20 тепло 1010.2 1007.2
09 19.06 З 7
{12}
22 км 10/10 600 м
[]
+19.1 +14.8 76 +20 +20 тепло 1010.5 1007.5 0
10 19.06 ЮЗ 4 11 км 10/10 540 м
[]
+19.3 +14.8 75 +21 +21 комфорт 1011.0 1008.0
11 19.06 ЮЗ 4 21 км 10/10 600 м
[]
+19.8 +15.0 74 +22 +22 комфорт 1011.2 1008.2
12 19.06 ЮЗ 6
{10}
18 км 10/10 300 м
[]
+19.2 +15.5 79 +20 +20 прохладно 1011.4 1008.4 0
13 19.06 З 3 30 км 10/10 270 м
[]
+18.7 +16.7 88 +20 +20 прохладно 1011.6 1008.6 0.4
14 19.06 ЮЗ 3 18 км 10/10 420 м
[]
+18.6 +16.2 86 +20 +20 прохладно 1011.7 1008.6 0.0
15 19.06 ЮЗ 6
{13}
26 км 10/10 300 м
[]
+19.0 +14.9 77 +20 +20 прохладно 1011.8 1008.8 0.4 0
16 19.06 ЮЗ 3 30 км 10/10 750 м
[]
+19.9 +14.5 71 +22 +22 комфорт 1011.7 1008.7
17 19.06 ЮЗ 3 40 км 10/10 600 м
[]
+19.0 +14.9 77 +21 +21 комфорт 1011.9 1008.9
18 19.06 ЮЗ 5
{8}
18 км слаб. дождь 10/10 600 м
[]
+17.2 +15.2 88 +17 +17 холодно 1012.4 1009.3 +17.2 +20.8 0.0
19 19.06 З 2 35 км 10/9 400 м
[]
+17.3 +14.9 86 +18 +18 по сезону 1012.6 1009.5 0.0
20 19.06 ЮЗ 2 35 км 10/9 930 м
[]
+16.8 +14.3 85 +17 +17 по сезону 1012.9 1009.8
21 19.06 З 3
{6}
40 км 10/10 1000 м
[]
+16.6 +14.6 88 +16 +16 прохладно 1013.4 1010.3 0.0 0
22 19.06 З 2 19 км 10/9 360 м
[]
+16.3 +14.5 89 +17 +17 тепло 1013.8 1010.7
23 19.06 ЮЗ 2 27 км 10/10 1200 м
[]
+16.0 +14.4 90 +16 +16 тепло 1014.0 1010.9
00 20.06 З 2
{4}
40 км 10/10 300 м
[]
+15.7 +14.2 91 +16 +16 по сезону 1014.3 1011.2 0
01 20.06 СВ 1 11 км дождь 10/10 240 м
[]
+14.6 +13.1 91 +15 +15 тепло 1014.6 1011.5 0.0
02 20.06 С 1 40 км 10/10 540 м
[]
+14.4 +12.6 89 +15 +15 по сезону 1014.9 1011.8 0.0
03 20.06 СЗ 1
{3}
45 км 10/10 300 м
[]
+13.8 +12.2 90 +14 +14 по сезону 1015.2 1012.1 0.0 0
04 20.06 СЗ 1 45 км 10/10 1500 м
[]
+14.0 +12.4 90 +14 +14 по сезону 1015.6 1012.5
05 20.06 СЗ 1 35 км 10/10 2000 м
[]
+14.0 +11.7 86 +14 +14 по сезону 1016.1 1013.0
06 20.06 СЗ 3
{5}
29 км н/о +13.7 +11.0 84 +13 +13 по сезону 1016.7 1013.6 +13.7 +17.5 0.0 0
07 20.06 СЗ 2 24 км 9/1 480 м
[]
+15.4 +10.6 73 +16 +18 прохладно 1017.1 1014.0
08 20.06 СЗ 2 23 км н/о +16.2 +9.8 66 +16 +16 прохладно 1017.0 1013.9
09 20.06 СЗ 3
{7}
23 км н/о +16.7 +9.4 62 +16 +16 прохладно 1017.2 1014.1 0
10 20.06 С 1 35 км н/о +18.1 +9.2 56 +19 +19 холодно 1017.3 1014.2
11 20.06 СЗ 2 35 км 8/8 1300 м
[]
+19.2 +8.2 49 +21 +24 комфорт 1017.8 1014.7
12 20.06 З 3
{7}
18 км н/о +20.0 +9.0 49 +22 +22 комфорт 1017.6 1014.5 0
13 20.06 З 2 30 км н/о +20.1 +8.1 46 +22 +22 комфорт 1017.4 1014.3
14 20.06 СЗ 2 55 км 8/8 1500 м
[]
+20.7 +8.3 45 +23 +26 комфорт 1017.2 1014.1
15 20.06 З 4
{8}
35 км н/о +21.2 +9.4 47 +23 +23 комфорт 1017.0 1014.0 0
16 20.06 З 3 28 км н/о +20.9 +10.7 52 +23 +23 комфорт 1017.4 1014.3
17 20.06 З 3 28 км н/о +19.7 +11.2 58 +21 +21 комфорт 1017.4 1014.3
18 20.06 СЗ 5
{9}
40 км н/о +19.1 +9.8 55 +20 +20 по сезону 1017.4 1014.3 +13.6 +22.0 0
19 20.06 З 2 50 км н/о +18.1 +8.4 53 +19 +19 по сезону 1017.6 1014.5
20 20.06 СЗ 2 55 км н/о +16.1 +10.0 67 +16 +16 прохладно 1017.8 1014.7
21 20.06 СЗ 3
{6}
45 км н/о +14.4 +10.4 77 +14 +14 прохладно 1018.4 1015.3 0
22 20.06 З 1 22 км н/о +13.0 +10.2 83 +14 +14 по сезону 1018.7 1015.6
23 20.06 СЗ 1 35 км н/о +12.2 +10.6 90 +13 +13 по сезону 1019.1 1016.0
00 21.06 С 3
{6}
40 км н/о +13.8 +10.8 82 +13 +13 по сезону 1019.1 1016.0 0
01 21.06 СВ 1 50 км 10/10 1500 м
[]
+14.0 +9.2 73 +14 +14 по сезону 1019.2 1016.1
02 21.06 СВ 1 50 км н/о +13.0 +9.3 78 +13 +13 по сезону 1019.4 1016.3
03 21.06 СВ 2
{5}
45 км н/о +13.3 +9.5 78 +13 +13 по сезону 1019.5 1016.4 0
04 21.06 СВ 1 40 км 10/10 1500 м
[]
+13.3 +9.5 78 +13 +13 по сезону 1019.6 1016.5
05 21.06 С 2 27 км 10/9 1410 м
[]
+13.6 +10.6 82 +13 +13 по сезону 1019.8 1016.7
06 21.06 СВ 3
{7}
22 км н/о +14.7 +11.1 79 +14 +14 по сезону 1020.0 1016.9 +11.7 +19.2 0
07 21.06 СВ 2 40 км 9/3 1350 м
[]
+15.2 +10.0 71 +15 +17 прохладно 1020.4 1017.3
08 21.06 С 1 18 км н/о +16.3 +11.7 74 +17 +17 по сезону 1020.7 1017.6
09 21.06 С 4
{7}
20 км н/о +18.2 +10.1 59 +18 +18 по сезону 1020.7 1017.6 0
10 21.06 СВ 2 35 км 8/8 1500 м
[]
+20.1 +7.1 43 +22 +25 комфорт 1020.6 1017.5
11 21.06 СВ 1 30 км 9/6 1470 м
[]
+21.0 +8.6 45 +24 +29 комфорт 1020.5 1017.4
12 21.06 С 3
{6}
45 км 8/8 1500 м
[]
+20.3 +9.2 49 +22 +25 комфорт 1020.5 1017.4 0
13 21.06 С 1 50 км 10/10 1500 м
[]
+21.2 +9.1 46 +22 +22 комфорт 1020.3 1017.2
14 21.06 С 2 30 км н/о +22.9 +8.6 40 +24 +24 комфорт 1020.0 1017.0
15 21.06 С 3
{6}
24 км 8/8 1500 м
[]
+23.2 +8.5 39 +24 +27 комфорт 1019.9 1016.9 0
16 21.06 С 2 35 км н/о +21.6 +8.5 43 +23 +23 комфорт 1019.7 1016.6
17 21.06 С 1 45 км 10/10 1500 м
[]
+21.6 +8.8 44 +23 +23 комфорт 1019.7 1016.6
18 21.06 С 3
{7}
40 км 10/10 1500 м
[]
+22.6 +8.3 40 +24 +24 комфорт 1019.8 1016.8 +14.6 +23.5 0
19 21.06 С 2 50 км н/о +20.7 +8.3 45 +23 +23 комфорт 1020.1 1017.0
20 21.06 С 1 55 км н/о +18.3 +8.5 53 +20 +20 тепло 1020.3 1017.2
21 21.06 С 3
{7}
55 км н/о +17.6 +10.0 61 +18 +18 по сезону 1020.8 1017.7 0
22 21.06 С 2 18 км н/о +16.8 +9.9 64 +17 +17 тепло 1021.1 1018.0
23 21.06 С 1 55 км н/о +14.9 +8.8 67 +15 +15 по сезону 1021.1 1018.0
00 22.06 СВ 3
{7}
55 км н/о +14.7 +8.4 66 +14 +14 по сезону 1020.7 1017.6 0
01 22.06 СВ 2 55 км н/о +14.1 +8.7 70 +14 +14 по сезону 1020.3 1017.2
02 22.06 СВ 2 50 км н/о +14.1 +9.3 73 +14 +14 по сезону 1019.9 1016.8
03 22.06 СВ 4
{7}
45 км н/о +13.8 +10.0 78 +12 +12 прохладно 1019.6 1016.5 0
04 22.06 СВ 1 40 км н/о +12.7 +9.9 83 +13 +13 по сезону 1019.6 1016.5
05 22.06 СВ 1 17 км н/о +12.9 +10.4 85 +14 +14 по сезону 1019.9 1016.8
06 22.06 В 3
{6}
24 км н/о +14.8 +11.0 78 +14 +14 по сезону 1019.8 1016.7 +12.1 +22.7 0
07 22.06 В 2 25 км н/о +17.3 +11.8 70 +18 +18 по сезону 1019.7 1016.6
08 22.06 В 2 13 км н/о +19.8 +12.1 61 +22 +22 комфорт 1019.3 1016.2
09 22.06 В 4
{6}
26 км н/о +21.9 +11.3 51 +24 +24 комфорт 1018.8 1015.8 0
10 22.06 В 2 26 км н/о +23.1 +10.2 44 +25 +25 комфорт 1018.4 1015.4
11 22.06 В 2 25 км н/о +23.9 +9.5 40 +25 +25 комфорт 1017.9 1014.9
12 22.06 В 4
{9}
18 км н/о +24.6 +7.7 34 +25 +25 комфорт 1017.5 1014.5 0
13 22.06 В 3 25 км н/о +24.4 +9.2 38 +25 +25 комфорт 1017.1 1014.1
14 22.06 В 3 30 км н/о +25.5 +10.1 38 +26 +26 жарко 1016.6 1013.6
15 22.06 В 5
{9}
28 км н/о +26.0 +8.5 33 +26 +26 жарко 1015.9 1012.9 0
16 22.06 В 2 35 км н/о +25.6 +9.0 35 +26 +26 жарко 1015.6 1012.6
17 22.06 В 2 40 км н/о +25.7 +8.2 33 +26 +26 жарко 1015.1 1012.1
18 22.06 В 4
{8}
18 км н/о +24.1 +9.7 40 +25 +25 комфорт 1014.9 1011.9 +14.8 +26.4 0
19 22.06 В 2 50 км н/о +23.5 +9.8 42 +25 +25 комфорт 1014.6 1011.6
20 22.06 В 2 55 км н/о +21.5 +10.0 48 +23 +23 комфорт 1014.7 1011.7
21 22.06 В 3
{5}
55 км н/о +20.4 +9.6 50 +22 +22 комфорт 1015.1 1012.0 0
22 22.06 В 1 55 км н/о +19.3 +10.3 56 +21 +21 комфорт 1015.1 1012.0
23 22.06 СВ 2 50 км н/о +18.6 +10.4 59 +20 +20 тепло 1014.7 1011.6
00 23.06 В 2
{4}
50 км 10/0
[]
+17.8 +10.9 64 +18 +18 тепло 1014.5 1011.4 0
01 23.06 В 1 45 км 10/10
[]
+17.3 +11.3 68 +18 +18 тепло 1013.9 1010.8
02 23.06 СВ 1 45 км н/о +16.8 +11.3 70 +18 +18 тепло 1013.3 1010.2
03 23.06 В 2
{5}
45 км 10/0
[]
+16.9 +11.4 70 +17 +17 тепло 1013.0 1009.9 0
04 23.06 В 2 16 км 9/9
[]
+16.8 +11.7 72 +17 +17 тепло 1012.6 1009.5
05 23.06 В 2 35 км 9/9
[]
+17.2 +12.5 74 +18 +18 тепло 1012.3 1009.2
06 23.06 В 4
{8}
35 км 10/0
[]
+17.5 +13.2 76 +17 +18 тепло 1012.2 1009.1 +16.5 +24.7 0
07 23.06 В 2 40 км 10/10
[]
+19.6 +14.2 71 +22 +22 комфорт 1012.1 1009.1
08 23.06 В 3 19 км н/о +22.5 +15.1 63 +26 +26 жарко 1012.1 1009.1
09 23.06 В 4
{7}
35 км н/о +24.6 +15.8 58 +28 +28 душно 1011.8 1008.8 0
10 23.06 ЮВ 3 28 км н/о +25.3 +15.6 55 +28 +28 жарко 1011.2 1008.2
11 23.06 ЮВ 2 27 км 10/10
[]
+27.2 +14.2 45 +29 +29 жарко 1011.0 1008.0
12 23.06 ЮВ 5
{9}
30 км н/о +28.8 +13.1 38 +30 +30 жарко 1010.4 1007.5 0
13 23.06 ЮВ 2 19 км н/о +30.0 +9.0 27 +29 +29 жарко 1009.9 1007.0
14 23.06 Ю 3 30 км н/о +30.6 +12.0 32 +31 +31 жарко 1009.9 1007.0
15 23.06 Ю 5
{11}
35 км н/о +31.0 +12.8 33 +32 +32 жарко 1009.8 1006.9 0
16 23.06 Ю 3 29 км 10/10
[]
+28.8 +13.9 40 +31 +31 жарко 1009.9 1007.0
17 23.06 ЮЗ 3 29 км н/о +25.8 +17.4 60 +30 +30 душно 1010.7 1007.7
18 23.06 ЮЗ 5
{9}
19 км 10/0
[]
+22.9 +17.4 71 +28 +29 душно 1011.7 1008.7 +17.5 +31.3 0
19 23.06 ЮЗ 2 30 км 10/10
[]
+21.4 +16.8 75 +25 +25 комфорт 1012.8 1009.8
20 23.06 ЮЗ 1 50 км 10/10
[]
+20.0 +16.0 78 +24 +24 комфорт 1013.1 1010.1
21 23.06 ЮЗ 2
{4}
45 км 10/0
[]
+19.2 +16.1 82 +21 +21 комфорт 1013.9 1010.8 0
22 23.06 З 1 40 км 10/10
[]
+18.8 +16.0 84 +21 +21 комфорт 1014.2 1011.1
23 23.06 ЮЗ 1 30 км 10/10
[]
+17.5 +15.7 89 +19 +19 тепло 1014.0 1010.9
00 24.06 Ю 3
{4}
20 км н/о +16.8 +15.8 94 +17 +17 тепло 1015.3 1012.2 0
01 24.06 З 1 17 км 10/10
[]
+17.1 +16.1 94 +18 +18 тепло 1015.0 1011.9
02 24.06 З 1 11 км 10/1 1440 м
[]
+17.3 +16.3 94 +18 +18 тепло 1015.0 1011.9 0.4
03 24.06 СЗ 3
{4}
11 км 10/0 2000 м
[]
+17.2 +16.4 95 +17 +17 тепло 1015.3 1012.2 0.6 0
04 24.06 СЗ 1 4700 м дождь 10/10
[]
+16.9 +16.1 95 +18 +18 тепло 1015.3 1012.2 1
05 24.06 С 1 24 км 10/10 1500 м
[]
+16.4 +15.3 93 +17 +17 тепло 1015.4 1012.3 1
06 24.06 С 2
{4}
24 км 10/0
[]
+16.2 +14.9 92 +16 +17 по сезону 1015.9 1012.8 +16.0 +22.8 2 0
07 24.06 ЮЗ 1 10 км слаб. дождь 10/10 1300 м
[]
+16.6 +15.3 92 +17 +17 прохладно 1018.1 1015.0 0.2
08 24.06 СВ 1 17 км слаб. дождь 10/5 1050 м
[]
+17.2 +16.1 93 +18 +20 по сезону 1016.9 1013.8 0.4
09 24.06 С 2
{5}
19 км слаб. дождь 10/10 600 м
[]
+17.9 +16.4 91 +18 +18 по сезону 1016.2 1013.1 0.8 0
10 24.06 СВ 2 16 км слаб. дождь 9/6 1020 м
[]
+17.6 +16.3 92 +18 +22 очень
холодно
1015.9 1012.8 0.6
11 24.06 С 1 30 км 9/4 960 м
[]
+18.8 +17.1 90 +21 +28 комфорт 1016.0 1012.9 0.0
12 24.06 СВ 2
{6}
17 км дождь 10/10 600 м
[]
+18.8 +17.1 90 +21 +21 комфорт 1015.6 1012.5 0.8 0
13 24.06 СВ 2 40 км 9/1 420 м
[]
+20.4 +17.6 84 +25 +34 комфорт 1015.2 1012.2 0.2
14 24.06 СВ 2 27 км слаб. дождь 10/8 900 м
[]
+20.7 +17.1 80 +25 +27 комфорт 1015.1 1012.1 0.0
15 24.06 С 5
{8}
40 км 8/0 2000 м
[]
+21.8 +17.2 75 +26 +30 душно 1014.9 1011.9 0.2 0
16 24.06 С 2 40 км н/о +21.6 +17.4 77 +26 +26 душно 1013.8 1010.8 0.0
17 24.06 СЗ 2 45 км 8/8
[]
+21.0 +17.8 82 +26 +27 душно 1015.5 1012.5
18 24.06 С 6
{11}
35 км слаб. дождь 9/0 2000 м
[]
+20.1 +17.7 86 +23 +23 комфорт 1013.8 1010.8 +16.2 +22.6 0.0 0
19 24.06 С 2 35 км 10/5 400 м
[]
+20.4 +18.0 86 +25 +25 комфорт 1014.9 1011.9
20 24.06 С 2 29 км 10/3 330 м
[]
+19.2 +17.3 89 +22 +22 комфорт 1014.8 1011.7
21 24.06 С 5
{10}
30 км 10/10 300 м
[]
+18.7 +16.8 89 +20 +20 тепло 1014.7 1011.6 0
22 24.06 С 2 35 км 9/9 1500 м
[]
+18.6 +16.4 87 +20 +20 тепло 1015.1 1012.0
23 24.06 С 2 35 км 10/1 360 м
[]
+17.7 +15.9 89 +18 +18 тепло 1014.8 1011.7
00 25.06 С 2
{6}
30 км 10/10 300 м
[]
+17.5 +15.8 90 +18 +18 тепло 1015.3 1012.2 0
01 25.06 СЗ 2
{4}
21 км 10/10 300 м
[]
+16.8 +15.5 92 +17 +17 тепло 1015.2 1012.1
02 25.06 С 1 15 км 10/10 240 м
[]
+16.8 +15.8 94 +18 +18 тепло 1015.1 1012.0
03 25.06 С 3
{5}
10 км 10/10 200 м
[]
+16.9 +15.8 93 +17 +17 тепло 1014.9 1011.8 0
04 25.06 С 1 9000 м 10/10 210 м
[]
+16.9 +15.8 93 +18 +18 тепло 1015.1 1012.0
05 25.06 СВ 1 11 км 10/8 240 м
[]
+17.3 +16.0 92 +18 +18 тепло 1015.1 1012.0
06 25.06 СВ 2
{4}
13 км 10/10 200 м
[]
+17.9 +16.4 91 +19 +19 тепло 1015.9 1012.8 +16.6 +20.6 0
07 25.06 С 1 17 км 10/10 270 м
[]
+18.6 +16.6 88 +21 +21 комфорт 1016.6 1013.5
08 25.06 СЗ 1 16 км 10/10 300 м
[]
+19.6 +16.8 84 +23 +23 комфорт 1017.0 1013.9
09 25.06 З 2
{3}
15 км 10/10 300 м
[]
+20.8 +17.0 79 +25 +25 комфорт 1017.2 1014.2 0
10 25.06 З 1 19 км 10/10 420 м
[]
+22.1 +17.5 75 +27 +27 душно 1017.4 1014.4
11 25.06 СЗ 1 18 км н/о +23.9 +18.1 70 +28 +28 душно 1017.7 1014.7
12 25.06 СЗ 2
{6}
19 км н/о +25.0 +18.7 68 +30 +30 душно 1017.7 1014.7 0
13 25.06 З 1 20 км н/о +26.5 +17.6 58 +31 +31 душно 1017.8 1014.8
14 25.06 З 2 40 км н/о +28.1 +17.9 54 +33 +33 очень
душно
1017.8 1014.8
15 25.06 ЮЗ 3
{6}
40 км н/о +27.5 +16.1 50 +31 +31 душно 1018.3 1015.3 0
16 25.06 СЗ 2 27 км н/о +25.5 +19.4 69 +31 +31 очень
душно
1017.7 1014.7
17 25.06 С 2 27 км 8/8 2000 м
[]
+25.8 +19.4 68 +31 +32 очень
душно
1018.4 1015.4

 

Местоположение метеостанции Нант (Франция): широта 47.15 долгота -1.60 высота над уровнем моря 27 м.

В архиве по умолчанию представлена погода в Нанте за последнюю неделю. Архивные данные за месяц целиком и за предыдущие месяцы, начиная с января 2011 года, Вы можете получить, выбрав интересующий диапазон дат из раскрывающегося списка и нажав кнопку "Ввод!".


*Определитесь, кто Вы:
робот инопланетянин человек

Внимание! Время в таблицах - всемирное. Для получения местного времени необходимо прибавить поправку, которая равна 1 ч.

Смотрите также архив погоды в соседних городах и на ближайших метеорологических станциях:

Погода в Сен-Назере (Франция) (47 км)
Погода в Ла-Рош-сюр-Йоне (Франция) (53 км)
Погода на Шемулене (Франция) (54 км)
Погода на Йе (Франция) (75 км)
Погода в Бокузе (Франция) (84 км)
Погода в Ренне (Франция) (103 км)
Погода в Марсе (Франция) (107 км)
Погода в Ла-Рошель аэропорту (Франция) (112 км)
Погода в Ла-Рошеле (Франция) (116 км)
Погода в Лавале (Франция) (118 км)

Пояснения к столбцам:

Ветер - указаны скорость ветра в м/с - средняя за 10 мин, порывы в срок и между сроками (в фигурных скобках) и направление, откуда дует ветер: С - северный, СВ - северо-восточный, В - восточный, ЮВ - юго-восточный, Ю - южный, ЮЗ - юго-западный, З - западный, СЗ - северо-западный.
Видимость - горизонтальная дальность видимости в метрах или километрах. При видимости от 1 до 10 км при отсутствии осадков обычно наблюдается дымка, при ухудшении видимости до 1 км и менее - туман. В сухую погоду видимость может ухудшаться дымом, пылью или мглою.
Явления - указаны атмосферные явления, наблюдавшиеся в срок или в последний час перед сроком; фигурными скобками обозначены явления, наблюдавшиеся между сроками (за 1-3 часа до срока); квадратными скобками обозначены град или гололедные отложения с указанием их диаметра в мм.
Облачность - указаны через наклонную черту общая и нижняя облачность в баллах и высота нижней границы облаков в метрах; квадратными скобками обозначены формы облаков: Ci - перистые, Cs - перисто-слоистые, Cc - перисто-кучевые, Ac - высококучевые, As - высокослоистые, Sc - слоисто-кучевые, Ns - слоисто-дождевые, Cu - кучевые, Cb - кучево-дождевые. Подробнее классификацию облаков см. в Атласе облаков (PDF).
T - Температура воздуха - температура, измеренная на высоте 2 м над землей.
Td - Температура точки росы - температура, при понижении до которой содержащийся в воздухе водяной пар достигнет насыщения.
f - Относительная влажность воздуха - влажноcть воздуха, измеренная на высоте 2 м над землей.
Te - Эффективная температура - температура, которую ощущает одетый по сезону человек в тени. Характеристика душности погоды. При расчете учитывается влияние влажности воздуха и скорости ветра на теплоощущения человека.
Tes - Эффективная температура на солнце - температура, которую ощущает человек, с поправкой на солнечный нагрев. Характеристика знойности погоды. Зависит от высоты солнца над горизонтом, облачности и скорости ветра. Ночью, в пасмурную погоду, а также при ветре 12 м/с и более поправка равна нулю.
P - Атмосферное давление - приведенное к уровню моря атмосферное давление.
Po - Атмосферное давление - измеренное на уровне метеостанции атмосферное давление.
Tmin - Минимальная температура - минимум температуры воздуха на высоте 2 м над землей.
Tmax - Максимальная температура - максимум температуры воздуха на высоте 2 м над землей.
R - Количество осадков - Количество выпавших осадков за период времени, мм. При наведении курсора мыши на число - период времени, за который выпало указанное количество осадков.
R24 - Количество осадков - Количество выпавших осадков за 24 часа, мм.
S - Снежный покров - Высота снежного покрова, см. При наведении курсора мыши на число - состояние снежного покрова и степень покрытия местности в баллах.